Location: Newark
(48.3008°N, 3.9542°W)
Time: 05:17:39
(UTC+00:00)

ISS - Visible Passes

Search period start: 12 November 2019 00:00
Search period end: 22 November 2019 00:00
Orbit: 412 x 421 km, 51.6° (Epoch: 12 November)

Date Brightness Start Highest point End Pass type
(mag) Time Alt. Az. Time Alt. Az. Time Alt. Az.
12 Nov -1.9 05:34:31 18° SSW 05:34:31 18° SSW 05:36:26 10° S visible
13 Nov -0.8 04:48:32 11° SSE 04:48:32 11° SSE 04:48:43 10° SSE visible
21 Nov -1.3 18:15:12 10° SSE 18:15:42 11° SSE 18:15:42 11° SSE visible
